STARLINK-35779 (67047 NORAD) Tracking and Keplerian Element Data

This shows tracking and keplerian element data for the satellite.

Feedback or suggestion? Click here.




ElementValue
Catalog67047
NameSTARLINK-35779
Epoch Orbit132
Epoch Day354.25003472
Epoch Year2025
RAAN136.2068
Inclination43.0002
Eccentricity0.0001782
Argument of Perigee263.2236
Mean Anonmoly357.5217
Mean Motion15.89173601
Decay Rate-0.01425701
L11 67047U 25294T 25354.25003472 -.01425701 00000+0 -54805-2 0 9993
L22 67047 43.0002 136.2068 0001782 263.2236 357.5217 15.89173601 1320



Live tracking and technical data element details for STARLINK-35779 (NORAD 67047). STARLINK-35779 can be tracked NOW for your location showing map with azimuth and elevation plus other details from your city location.







IsCatalogInMostPopularTable: catalog: 67047, numindb: 17
Update: records affected: 1



GetName: 67047 STARLINK-35779

Hit Count: updated at: Fri, 16 Jan 2026 08:24:19 GMT